Theta_e
303 303 303 304 304 304 305 305 305 304 303 300 299 304 305 301 297 311 313 314 312 300 293 295 291 293 294 298 298 299 298 296 297 295 297 294 297 296 296 294 292 295 292 291 289 290 287 289 286 289 289 290 295 297 297 297 297 294 288 294 292 299 282 281 282 287 289 291 293 294 294 293 290 289 291 289 286 286 284 281 282 280 280 280 279 275 281
302 303 303 303 303 304 304 304 305 304 304 299 300 302 302 301 302 304 309 312 304 294 284 283 284 292 296 297 296 299 296 294 293 293 296 296 294 293 292 292 296 291 293 290 288 292 281 293 289 287 291 288 298 298 297 297 292 291 290 288 293 283 285 284 278 277 278 282 287 287 290 291 286 283 286 291 290 290 290 289 286 280 281 282 278 273 281
302 302 302 303 303 303 304 304 304 304 304 303 300 299 301 301 305 305 304 305 300 291 294 291 286 291 292 293 291 293 294 295 295 295 294 296 294 294 292 293 293 293 294 290 290 291 289 285 293 291 292 289 295 295 296 297 293 298 299 303 294 285 284 282 276 272 271 270 272 273 277 282 283 288 287 287 287 286 283 279 279 277 280 284 278 277 284
302 302 302 302 303 303 303 303 303 303 304 304 302 304 303 295 284 294 295 298 296 298 298 297 292 287 289 284 290 292 290 294 297 296 295 296 296 293 294 293 293 291 291 289 290 290 293 289 288 288 288 290 293 295 296 298 296 301 303 298 294 284 288 284 281 278 278 279 282 288 288 283 279 283 285 285 287 287 286 282 279 276 279 278 281 283 281
302 302 301 302 302 303 303 303 303 303 303 304 301 303 305 301 290 286 284 292 294 292 294 294 294 287 292 282 291 288 291 292 294 296 291 297 294 296 295 294 290 288 289 287 288 291 289 291 289 289 288 291 292 295 295 295 301 304 299 299 289 285 280 284 285 285 285 286 286 287 287 283 284 284 284 286 285 286 284 279 277 282 278 275 281 284 282
301 301 301 301 302 302 303 303 303 302 302 304 306 298 298 288 291 295 295 289 284 285 286 293 291 294 294 288 293 289 289 291 287 294 295 295 295 291 294 294 293 291 289 289 283 288 288 289 283 291 291 290 292 290 294 293 300 301 294 298 289 283 278 283 284 284 286 286 286 287 286 286 286 286 285 284 285 284 280 280 284 283 277 276 280 282 280
301 301 301 301 301 302 302 302 302 302 302 304 302 294 297 297 295 296 295 287 290 290 292 294 293 292 294 289 293 290 290 289 292 292 293 293 292 293 282 289 291 291 292 289 285 287 280 279 288 287 286 289 287 286 290 293 294 293 290 291 291 287 279 285 286 284 285 285 286 287 286 285 285 285 285 285 284 282 283 283 284 283 281 282 282 281 280
300 300 301 301 301 301 302 302 302 301 301 306 300 296 292 290 291 290 294 292 291 293 293 294 293 290 295 286 292 292 292 290 292 294 291 284 290 294 289 289 290 290 290 289 285 288 287 286 282 288 287 285 288 286 288 286 291 291 289 290 289 285 280 288 285 280 282 285 287 286 285 285 283 285 285 284 284 284 284 283 281 283 281 282 280 278 281
300 300 300 301 301 301 302 302 302 301 301 301 300 298 297 296 298 297 292 288 290 293 292 290 289 285 288 285 291 292 292 291 292 290 293 289 288 290 288 290 290 290 289 288 287 292 290 290 288 289 289 283 291 286 287 292 287 289 288 289 289 287 279 287 284 277 276 284 284 284 285 284 282 282 282 281 281 278 279 280 281 279 278 279 278 278 280
300 300 300 300 301 301 301 302 302 300 300 297 297 296 300 298 299 299 294 285 292 289 291 291 289 283 290 293 291 291 290 291 291 283 292 293 293 293 291 291 289 288 288 288 289 291 291 291 292 291 290 291 290 291 291 291 288 286 286 287 283 285 280 279 279 276 276 283 285 283 281 278 277 276 277 282 282 283 284 284 285 285 283 280 279 280 283
299 299 299 300 300 300 301 301 301 301 298 293 293 294 297 294 292 293 293 285 285 289 288 287 287 292 291 293 292 293 291 291 291 285 283 292 292 294 292 290 286 283 285 291 293 293 293 292 292 292 290 290 289 290 290 291 291 289 287 285 284 284 283 279 283 274 275 281 281 281 276 271 272 280 286 287 282 282 280 280 281 284 285 281 283 284 285
299 299 299 300 300 300 300 301 301 301 299 296 296 296 299 299 296 294 287 283 284 290 288 285 288 290 290 293 293 290 290 291 292 293 288 290 291 293 292 290 289 279 292 294 293 293 294 293 292 291 291 290 289 290 290 288 289 291 290 286 283 282 282 279 281 276 275 276 277 273 269 273 280 287 289 289 288 288 286 286 287 288 288 288 287 287 287
299 299 299 300 300 300 300 300 301 301 300 297 295 293 298 300 295 291 288 285 282 287 284 287 291 291 293 293 292 291 291 292 292 292 292 290 290 292 293 291 289 291 295 293 293 291 287 284 285 286 286 288 288 288 287 287 287 290 289 289 285 281 279 280 279 279 278 275 273 267 271 279 285 286 288 290 289 288 285 283 285 289 288 289 286 287 289
299 299 299 299 299 299 299 300 300 301 301 299 294 295 299 298 293 289 287 283 283 288 290 287 289 290 291 291 291 290 290 290 290 292 289 293 291 291 293 293 293 295 294 292 290 288 282 282 278 279 281 284 283 282 286 288 288 288 288 289 289 285 283 281 277 279 274 273 272 274 281 281 282 281 282 285 281 282 281 277 279 288 288 288 287 288 289
299 299 299 299 299 300 299 299 300 300 300 300 296 295 298 298 297 292 292 288 283 286 287 281 287 289 289 290 290 287 285 286 286 285 291 293 291 295 294 294 295 293 292 289 284 285 281 280 276 275 277 275 271 274 285 282 287 289 289 289 289 287 283 282 279 277 279 274 272 272 272 271 275 285 291 293 292 291 287 282 279 288 289 289 288 287 287
299 299 299 299 300 300 299 299 299 300 300 300 296 294 297 300 298 295 291 285 283 281 286 291 292 290 287 287 290 287 284 282 285 286 286 288 289 290 292 294 295 294 292 290 286 282 280 277 274 274 271 274 280 279 275 283 282 287 287 288 288 289 288 284 280 278 277 276 273 271 269 273 278 283 290 291 291 291 289 279 276 284 288 288 288 287 288
299 299 299 299 300 300 300 299 299 300 300 299 294 294 294 301 297 293 290 289 287 283 291 293 292 290 287 286 288 286 287 282 284 280 280 281 286 288 290 293 293 293 292 286 284 281 279 277 278 277 279 282 278 276 281 280 278 280 286 286 286 285 283 284 280 277 277 275 274 273 275 273 282 288 289 290 289 290 279 270 270 283 286 289 289 288 288
298 298 298 298 299 299 300 299 299 300 300 300 296 293 294 299 299 297 292 289 284 284 291 293 288 286 285 286 285 289 291 288 287 286 281 284 286 286 287 290 287 292 292 282 283 279 278 277 273 275 275 283 283 283 272 279 276 276 276 279 277 279 280 282 278 279 279 279 276 276 277 283 287 288 290 290 293 284 272 269 274 285 287 288 289 288 288
298 298 298 298 298 299 299 299 299 300 300 300 297 294 293 296 299 298 292 289 287 282 290 292 293 290 291 293 290 290 290 288 287 281 281 281 285 288 290 290 290 281 288 282 283 279 278 278 283 280 277 280 283 275 280 277 275 281 281 277 278 279 278 279 278 276 274 275 274 275 276 284 288 290 291 292 285 272 270 279 287 287 287 288 289 288 288
298 298 298 298 298 298 299 299 299 300 300 300 297 291 293 296 299 299 292 286 287 285 288 289 292 288 291 288 286 285 286 287 286 282 280 279 286 288 284 280 287 287 283 283 277 281 278 277 279 283 279 280 282 285 278 278 283 280 279 281 277 278 276 274 275 277 277 276 272 272 268 279 289 288 286 287 278 278 284 286 287 291 290 290 289 290 290
297 298 298 299 298 298 299 299 299 299 300 300 298 293 291 296 298 301 300 294 289 284 285 293 293 291 291 290 291 291 288 284 284 282 283 283 286 283 275 277 281 282 280 282 278 279 281 279 280 280 283 281 281 280 274 274 278 284 283 281 280 284 276 277 278 281 274 274 272 273 280 283 291 287 280 280 284 287 289 288 285 289 290 289 289 289 291
297 298 299 298 298 298 298 299 299 299 300 299 298 294 290 294 296 299 299 295 288 284 286 292 293 292 293 294 294 294 293 291 293 291 285 281 286 284 282 284 284 283 285 285 281 280 281 280 282 278 275 277 281 275 278 274 272 279 284 283 274 282 279 279 275 280 277 275 277 282 285 286 288 289 288 288 290 292 292 289 288 287 288 292 289 290 290
298 298 298 298 298 298 298 298 299 299 300 300 298 293 290 292 294 297 296 289 290 291 293 292 293 293 295 296 297 297 297 298 296 295 292 285 281 284 283 283 283 289 287 289 282 281 281 280 276 282 278 280 278 277 278 276 274 278 275 283 281 285 286 287 284 280 284 284 284 286 284 286 287 289 289 288 289 293 292 292 289 290 289 290 290 290 291
298 298 298 298 298 298 298 298 299 300 300 300 299 294 292 292 293 294 292 291 286 284 286 289 285 282 287 290 294 296 297 296 294 293 294 292 281 280 285 288 289 287 284 289 287 285 283 281 280 281 275 279 280 275 272 272 274 278 278 277 281 284 284 283 278 281 278 273 283 283 284 286 286 287 288 289 290 290 291 291 291 292 292 292 292 291 291
298 298 298 297 297 298 298 299 299 299 300 299 298 298 296 293 295 295 290 285 285 283 279 282 284 291 294 296 296 293 293 296 295 296 294 294 290 284 282 287 289 284 283 286 288 284 284 279 279 279 275 282 283 276 280 277 277 282 275 276 278 277 285 280 280 279 276 276 282 284 285 286 287 287 286 286 288 290 291 292 293 293 293 293 292 292 292
298 298 297 297 297 297 298 299 299 299 299 299 299 294 293 292 295 295 293 292 290 286 281 280 284 293 294 293 291 293 296 296 294 294 295 295 294 292 290 291 290 292 289 290 288 283 281 280 281 279 278 279 286 278 277 281 279 282 279 277 281 282 284 275 280 278 281 283 284 284 285 286 286 288 289 289 289 290 291 292 293 292 292 292 293 293 292
298 298 297 296 297 297 298 298 299 299 298 299 297 295 294 294 296 293 290 290 285 281 282 280 284 289 292 289 292 295 296 294 293 293 293 293 293 293 291 289 287 288 288 286 287 284 284 282 280 278 281 280 284 282 282 280 280 278 277 281 284 282 278 282 279 275 274 275 279 283 278 278 283 286 288 288 289 291 291 291 291 291 290 291 291 292 293
298 297 298 297 297 297 297 298 298 298 298 298 297 295 295 294 295 295 295 293 288 281 281 281 282 286 292 289 293 293 293 294 293 292 291 291 292 291 291 290 288 287 285 283 281 282 282 280 279 282 282 284 279 279 282 283 282 279 279 281 284 280 281 279 275 274 276 282 284 285 284 284 285 287 288 289 290 290 291 290 290 290 292 293 292 291 291
298 298 298 298 299 299 298 298 298 298 298 297 294 294 293 295 296 297 297 298 295 289 286 286 288 286 281 286 292 291 293 293 292 292 292 292 292 292 290 290 288 288 288 285 283 283 282 282 283 281 280 285 281 279 280 276 275 275 279 283 283 284 284 283 283 283 284 286 285 286 285 284 286 288 289 289 290 290 290 291 291 292 291 293 293 293 291
298 298 298 298 298 298 298 298 298 298 298 295 293 290 286 290 298 299 300 301 297 293 284 282 279 282 290 290 288 290 291 293 292 293 293 290 290 290 289 289 289 292 288 284 282 280 282 281 282 284 286 290 281 281 276 277 275 278 283 284 285 285 286 286 286 283 282 286 286 287 287 288 289 289 290 290 291 292 290 290 290 291 293 294 293 292 292
298 298 298 298 298 298 299 299 299 299 298 294 291 284 284 282 290 300 300 301 298 291 284 284 281 285 284 289 289 288 290 291 291 291 291 291 290 289 290 290 289 290 283 283 283 282 283 280 281 281 286 288 285 280 276 275 274 278 282 284 285 285 285 285 286 286 287 288 290 290 289 289 289 290 290 290 290 291 291 291 293 295 294 294 294 293 292
298 298 299 299 299 299 299 300 300 299 296 292 288 287 289 290 295 297 299 298 297 289 283 280 280 281 281 283 289 291 291 292 291 291 288 291 288 292 290 291 284 290 287 282 283 283 281 282 281 282 282 287 284 278 279 277 276 277 282 282 285 286 286 286 287 288 288 290 289 286 286 287 288 287 286 290 291 292 292 292 293 292 293 293 294 294 293
299 299 299 299 300 300 300 300 300 299 296 297 300 300 298 299 299 298 298 296 292 284 288 283 279 281 279 282 288 291 293 290 288 288 285 290 287 288 283 288 288 288 291 285 280 279 282 281 281 280 283 286 280 280 277 276 278 282 284 285 285 286 286 287 288 288 288 289 289 283 283 285 287 290 291 292 292 291 291 292 293 293 292 293 292 292 292
299 299 299 299 300 300 300 301 301 301 300 295 289 292 297 300 298 298 297 294 289 288 286 281 278 278 279 287 281 287 290 284 281 285 279 288 288 286 281 284 282 281 284 281 282 282 282 282 280 280 283 281 283 279 275 279 282 283 284 285 286 286 286 286 287 287 287 288 289 289 289 290 291 291 291 291 290 291 292 292 292 291 291 291 291 292 292
299 299 299 300 301 301 301 301 298 295 291 292 293 297 297 300 300 299 297 291 283 282 282 283 282 277 277 279 278 284 291 286 280 283 279 284 289 283 282 279 281 278 278 288 280 280 279 280 281 278 276 280 277 273 276 280 282 283 284 284 285 286 285 284 285 287 288 290 289 289 290 290 290 289 289 290 290 291 291 291 291 290 290 291 291 293 293
298 299 300 300 301 301 298 298 295 293 292 292 293 300 301 301 299 298 297 296 289 281 281 281 282 279 279 275 275 281 290 282 285 285 284 281 281 287 282 279 275 279 283 280 276 279 278 283 281 274 279 275 274 274 278 281 282 284 285 285 283 286 285 286 287 288 288 291 291 291 291 290 289 289 290 290 290 289 289 289 290 290 290 290 292 292 293
298 299 300 301 300 296 291 290 297 296 292 294 298 303 301 299 298 297 294 292 294 293 285 281 279 279 279 277 281 283 286 277 283 279 279 279 277 280 280 278 275 280 279 277 277 275 279 285 279 274 275 274 277 280 285 285 285 284 285 286 288 288 288 288 288 289 289 288 290 288 287 288 288 288 288 288 288 289 288 288 288 289 288 289 290 292 291
299 300 297 294 292 285 285 287 293 296 299 299 299 294 292 291 284 285 286 284 288 290 285 284 279 281 284 279 276 285 283 278 282 276 277 281 277 277 280 277 277 278 271 274 277 283 281 279 276 275 275 280 283 285 285 287 287 287 288 288 289 289 288 289 288 288 288 286 285 286 286 286 286 286 286 287 288 287 286 288 290 291 291 290 290 291 291
297 294 291 290 287 282 283 288 299 301 297 296 295 286 283 286 283 281 280 283 283 282 284 281 280 283 281 279 281 286 283 277 276 277 274 279 277 272 278 272 277 277 273 273 275 286 275 276 276 276 275 279 281 284 288 288 289 288 287 287 289 289 290 290 291 290 287 285 285 285 285 285 285 286 288 288 289 290 291 292 292 292 290 293 292 291 292
291 287 284 284 283 286 293 296 300 296 293 286 287 284 280 284 281 279 284 280 280 282 282 278 283 283 283 279 278 277 286 280 274 273 275 277 284 274 277 276 277 275 269 269 274 283 276 271 275 275 274 279 281 286 287 288 288 286 286 288 290 290 290 290 290 290 289 288 288 288 288 288 288 288 288 288 288 288 290 291 292 292 294 294 292 293 292
289 288 287 283 288 290 292 294 295 293 286 282 281 281 280 278 281 282 280 276 276 277 285 282 283 280 282 282 281 276 284 286 283 283 279 274 281 280 275 271 279 272 270 270 278 280 277 274 274 274 275 281 282 284 286 287 286 286 287 288 289 290 291 291 290 290 289 288 287 287 288 288 288 287 288 288 289 289 290 290 290 290 293 293 293 293 295
290 290 291 293 292 292 292 290 288 284 283 283 278 275 278 278 280 279 280 275 275 279 280 280 276 277 278 281 280 281 280 286 282 281 278 273 280 277 273 275 277 271 268 275 279 278 276 271 273 274 279 281 283 285 287 287 287 286 289 290 291 291 290 290 289 288 288 287 287 287 287 287 287 286 287 287 289 289 289 288 288 291 291 291 292 292 291
297 296 295 291 290 286 286 281 283 282 275 276 274 272 276 273 276 274 275 280 283 279 280 287 283 285 286 286 281 284 281 285 280 279 277 274 281 279 274 273 272 267 272 279 278 274 273 272 273 277 282 283 284 285 286 287 289 289 289 289 290 291 290 289 288 288 288 288 287 287 287 287 286 287 287 287 287 289 289 289 289 290 290 291 290 290 290
293 293 288 286 283 283 283 272 282 279 277 277 273 269 273 273 275 278 276 278 280 280 282 279 279 279 276 282 279 279 281 282 284 281 278 280 277 273 273 270 271 276 281 276 275 272 273 275 276 280 282 284 286 286 287 287 287 287 288 289 289 290 290 289 289 288 288 288 288 288 287 287 286 287 287 286 286 286 288 289 290 290 290 291 290 290 291
287 284 282 280 278 281 278 270 280 276 270 273 278 275 276 273 275 277 277 281 282 279 282 282 281 281 278 282 282 281 281 277 282 276 273 277 273 274 271 270 276 277 273 270 273 274 275 273 278 282 283 283 285 286 286 286 286 286 285 287 289 289 289 288 288 288 287 287 287 287 286 286 286 286 286 285 286 286 287 288 289 289 289 290 290 290 290
284 282 279 275 271 276 276 272 275 272 277 279 278 279 279 280 279 279 284 284 281 281 281 281 282 282 278 281 277 276 279 279 276 276 278 277 271 268 275 279 278 272 271 272 270 270 273 277 280 281 283 283 285 285 285 286 287 287 287 286 288 288 288 288 288 288 287 287 287 287 286 286 286 286 285 286 286 286 286 287 288 288 288 288 288 288 289
285 285 282 279 273 277 279 272 273 277 279 279 280 281 281 281 282 282 283 284 282 282 282 284 283 282 277 277 278 278 280 279 274 277 278 271 270 275 280 274 270 272 269 268 269 271 275 279 280 282 283 284 285 286 286 286 287 287 288 289 289 288 288 288 288 288 288 288 287 287 286 286 286 286 286 286 286 286 286 287 287 288 287 287 288 288 289
281 284 281 273 271 276 274 277 281 281 282 282 283 284 284 284 282 280 284 285 283 283 282 282 279 279 278 281 281 276 277 279 274 274 277 274 277 272 270 270 270 272 273 271 272 276 278 280 282 283 284 285 285 285 286 286 286 287 287 288 288 288 288 288 287 287 287 287 287 287 286 286 286 286 285 285 285 286 286 286 287 287 287 287 287 287 287
286 283 278 276 278 278 278 281 280 278 281 282 283 283 282 282 281 283 284 285 283 283 283 282 279 279 275 280 277 276 273 277 270 271 276 274 269 267 267 266 268 267 273 276 276 277 279 282 284 283 284 285 286 286 287 286 286 287 288 289 288 288 288 287 287 287 287 287 287 287 287 287 287 286 286 286 285 285 287 287 287 287 287 287 286 286 286
283 281 282 280 279 279 281 281 280 279 281 282 281 282 282 281 281 283 286 284 283 283 283 283 282 279 278 278 272 274 272 275 274 275 271 269 269 271 270 266 268 269 272 276 277 279 282 283 284 283 283 284 285 286 286 286 286 286 287 289 288 288 288 287 287 287 287 287 286 286 286 286 286 286 286 285 286 287 287 287 287 287 287 287 287 286 286
285 282 281 282 278 277 278 274 275 276 277 279 280 281 280 280 280 281 286 285 284 281 279 276 278 277 275 273 272 268 270 277 273 270 271 269 273 271 269 268 270 274 277 280 281 282 283 283 282 282 282 284 285 286 285 287 288 288 289 289 289 289 288 288 287 287 286 287 287 286 286 286 286 286 287 287 287 286 286 286 287 287 287 287 287 287 286
281 278 278 281 282 282 281 282 282 281 281 282 281 282 281 280 283 284 288 284 281 277 276 279 278 275 272 269 272 275 277 274 271 272 269 272 276 271 271 272 275 277 279 281 281 282 282 282 281 281 283 284 285 285 286 288 288 289 288 288 288 288 288 288 288 287 287 286 286 286 286 287 287 287 287 286 285 285 284 284 285 286 286 286 287 287 287
Wind_Speed
29 29 29 29 30 30 29 29 26 24 26 12 9 5 3 2 4 2 3 4 0 2 2 3 3 2 4 12 5 6 5 5 5 6 4 4 2 2 1 3 4 2 3 4 5 7 3 3 4 5 6 8 1 2 7 3 3 5 3 5 3 1 1 1 5 4 6 7 7 10 12 14 12 5 3 2 3 2 5 4 3 2 2 2 0 2 8
30 29 29 30 30 30 30 30 28 22 18 7 7 3 3 4 4 4 4 4 5 2 1 4 7 4 4 4 7 9 7 7 8 5 3 1 3 3 3 5 1 4 4 4 5 2 2 0 4 3 3 3 3 2 5 6 1 3 2 2 2 1 1 3 3 4 5 5 4 6 4 4 2 3 4 3 2 2 1 1 2 1 5 6 3 6 7
30 29 29 30 30 30 31 31 30 27 18 11 2 2 3 4 3 1 2 3 7 1 1 0 2 3 5 6 8 7 4 6 8 9 6 4 2 3 2 3 3 3 3 6 6 6 4 3 2 5 4 6 6 7 4 3 3 4 8 9 3 3 2 1 4 6 8 5 1 0 4 7 4 1 6 8 7 5 5 1 2 1 2 2 3 5 9
30 29 28 29 30 31 31 31 31 30 25 15 3 2 2 2 3 5 5 6 5 1 8 3 5 4 4 6 4 4 5 5 7 10 3 3 2 1 2 4 5 4 5 3 3 4 5 4 2 3 3 3 3 7 9 3 5 5 10 7 4 2 1 2 3 5 8 7 4 4 8 6 6 10 8 9 8 5 1 1 2 5 4 4 6 6 6
28 28 28 29 29 30 31 31 31 31 28 19 2 3 2 2 2 2 5 6 3 5 5 5 4 4 4 2 2 5 4 5 6 4 1 1 3 2 1 3 3 2 4 4 3 3 6 6 6 4 6 4 4 10 8 13 9 12 6 6 5 2 2 6 7 10 11 8 9 7 8 10 12 11 12 9 5 2 4 1 5 1 4 8 3 0 3
29 28 27 28 29 30 30 31 31 33 30 27 3 3 4 2 2 3 1 1 4 8 6 8 9 8 6 3 3 5 5 4 3 5 7 6 5 1 0 1 3 5 5 5 3 1 4 4 4 4 3 6 10 9 9 6 1 3 2 3 3 4 4 6 5 9 11 8 8 7 7 9 11 13 13 13 7 4 4 5 7 6 4 9 7 4 3
28 28 28 28 28 29 29 31 31 32 34 21 4 4 3 3 2 1 5 3 5 5 9 13 11 8 6 3 4 4 5 5 5 4 2 3 4 9 3 2 4 3 6 6 3 2 3 3 4 2 5 4 5 5 9 4 7 7 4 2 1 0 2 3 4 6 6 5 6 7 10 7 9 11 12 7 3 3 4 6 5 4 6 8 10 7 9
27 27 27 28 28 28 28 30 30 31 33 16 7 7 4 4 4 5 5 2 6 6 4 6 7 4 7 4 3 5 3 5 6 7 5 3 5 7 5 11 11 7 9 7 5 0 3 4 1 4 4 7 2 3 3 6 6 5 4 3 2 2 2 1 3 5 6 5 8 6 7 7 11 14 9 6 7 11 10 6 6 7 5 5 4 6 11
26 26 26 27 27 27 27 28 29 29 27 7 7 5 5 3 3 3 4 6 4 4 5 6 6 5 4 4 4 4 3 4 4 5 7 5 4 5 8 8 8 7 8 6 6 3 2 3 1 2 1 2 2 2 3 6 8 10 6 2 3 3 3 3 3 5 4 1 5 10 6 8 13 14 6 4 5 6 3 5 5 3 6 6 6 8 11
24 25 26 27 26 26 26 27 28 27 21 6 5 5 6 4 3 4 3 2 4 6 5 6 4 4 2 2 5 3 6 9 11 4 3 3 3 4 10 7 5 5 8 6 6 6 6 4 3 4 4 2 4 6 9 9 7 3 4 4 5 1 3 3 3 5 5 1 2 7 6 8 11 8 4 8 8 8 8 6 5 7 6 6 7 9 8
23 24 25 26 26 25 25 25 26 25 15 10 7 5 7 7 7 6 2 2 4 4 5 6 5 2 9 9 13 5 2 6 6 4 3 8 9 13 7 5 4 3 4 4 5 6 9 7 7 6 6 5 6 7 10 14 12 9 6 3 2 3 5 4 1 4 4 4 3 4 7 10 8 1 2 1 3 3 4 6 6 6 3 4 4 5 4
23 23 24 24 25 24 23 24 24 25 17 7 4 4 5 5 4 3 3 2 5 5 4 4 6 8 8 11 7 10 11 2 1 4 4 3 7 7 8 6 3 3 3 4 4 6 8 8 10 10 9 7 10 12 13 15 14 11 7 6 5 7 4 4 2 3 5 1 1 3 7 14 1 1 4 4 5 4 3 4 3 3 5 6 10 7 4
21 22 23 23 23 24 23 22 24 23 22 11 7 5 6 5 3 3 3 2 3 5 6 8 11 9 11 10 8 7 11 11 8 6 4 4 5 4 4 2 3 5 6 6 5 6 6 4 7 7 10 10 12 15 17 16 15 14 10 11 10 7 5 3 3 2 2 3 2 4 14 6 5 3 4 5 7 2 3 6 3 4 4 2 3 3 6
21 21 22 22 22 23 23 23 23 23 24 17 8 8 6 7 5 4 3 3 6 3 5 9 8 8 9 9 9 8 8 7 4 4 4 2 4 5 5 5 3 1 2 4 4 3 4 2 3 3 5 6 8 7 11 16 18 16 15 16 13 10 5 5 6 4 8 4 4 9 7 13 9 2 1 0 1 1 2 2 4 4 4 5 4 5 6
20 21 21 21 21 21 22 21 21 23 22 20 7 7 5 6 5 3 4 1 4 8 4 1 8 8 7 7 7 7 4 4 5 4 6 5 4 1 4 5 5 2 5 3 2 2 0 1 2 3 4 3 3 3 8 6 4 17 22 18 15 15 13 6 6 4 8 7 4 3 3 10 2 2 1 1 5 6 5 3 4 4 5 5 4 3 3
19 20 20 19 20 20 20 20 20 21 21 20 8 7 6 5 4 4 3 1 3 4 0 7 11 10 4 5 6 5 4 5 5 5 5 5 6 9 5 9 8 4 3 2 1 1 1 1 2 1 2 2 6 7 3 4 5 7 3 7 15 16 15 11 11 6 4 6 8 5 6 7 2 5 4 3 3 6 3 3 4 1 2 3 2 3 2
19 19 19 19 19 19 19 19 19 19 19 19 9 7 5 7 6 5 4 2 1 7 10 11 7 8 6 4 7 5 2 3 5 3 3 5 8 11 8 8 7 4 3 4 1 1 1 0 1 3 4 6 7 5 9 6 5 4 6 10 7 1 7 9 7 6 5 4 4 7 1 3 2 5 1 1 1 2 5 3 5 1 3 1 1 1 4
18 19 19 19 18 19 18 17 17 18 18 19 9 7 5 7 7 4 3 3 4 5 1 9 12 7 6 5 4 5 3 3 4 3 1 3 5 7 5 2 5 3 3 2 0 1 1 1 2 3 5 4 7 8 6 5 6 4 5 6 6 6 3 6 12 11 9 6 5 4 3 2 2 3 2 3 1 3 1 5 3 2 4 4 2 2 2
18 18 18 18 18 18 18 16 17 17 17 18 10 6 4 7 5 3 2 4 3 5 8 14 10 5 7 7 3 4 4 6 4 3 4 4 1 11 8 5 0 2 1 1 1 1 1 3 1 3 4 4 3 4 4 4 3 3 5 5 4 4 3 2 1 3 5 7 6 7 2 0 1 4 1 2 2 1 2 3 1 1 3 3 3 3 4
17 17 18 18 18 17 17 16 17 17 17 18 10 4 6 8 5 2 3 3 2 8 11 10 4 12 8 7 7 4 8 6 4 4 3 3 6 12 8 4 5 4 6 3 1 1 2 4 3 3 5 4 5 3 4 5 4 6 4 4 4 3 2 4 5 2 1 1 1 1 1 1 6 1 1 1 2 4 2 1 1 1 0 0 2 1 2
17 17 17 18 17 17 16 17 16 16 16 16 11 6 7 5 6 3 3 3 4 7 7 5 10 14 9 9 7 8 4 5 5 5 2 3 2 3 2 1 6 4 3 3 1 2 2 3 3 2 2 4 4 5 3 4 6 7 6 4 6 3 3 2 2 2 0 3 1 1 3 3 3 1 1 2 6 5 3 0 4 1 2 2 2 2 4
17 17 17 17 16 16 15 15 16 15 16 16 13 5 6 6 8 5 7 5 3 5 5 13 12 12 14 11 11 8 8 8 5 0 2 3 1 1 4 6 7 3 1 1 1 2 1 2 2 2 3 3 2 2 4 6 5 3 9 6 4 2 4 1 1 0 1 1 3 5 9 4 1 3 3 3 5 4 4 3 2 3 2 1 2 4 4
17 17 17 17 16 15 15 14 14 15 16 15 11 4 6 7 7 7 6 5 3 5 6 9 9 10 11 13 13 12 10 6 3 3 1 2 3 2 3 3 4 3 3 6 3 2 1 2 2 2 3 1 3 6 6 3 3 2 4 3 5 7 4 1 1 3 5 5 7 3 3 5 7 7 6 6 9 3 4 4 4 2 3 2 3 4 4
17 17 17 16 15 15 14 14 16 16 16 14 10 6 5 5 7 6 4 2 3 7 5 3 5 5 4 7 2 4 8 8 4 4 3 4 2 2 1 2 0 2 1 1 1 3 2 0 3 1 2 2 5 5 4 4 4 3 5 5 2 5 6 8 5 5 6 4 4 6 8 6 8 8 5 6 4 3 3 3 5 6 5 6 5 6 6
18 17 17 16 15 15 14 15 16 15 15 15 10 6 5 6 4 4 5 5 4 4 4 7 8 8 9 11 10 6 5 9 4 3 5 5 6 5 5 3 3 2 4 3 1 2 0 1 2 1 4 1 1 7 2 6 7 1 5 3 5 5 5 11 4 6 4 7 7 9 5 6 6 3 4 6 6 5 4 4 6 7 5 5 5 6 7
18 18 17 15 14 14 14 14 15 15 15 16 13 6 5 6 5 5 5 4 3 2 4 5 7 9 9 15 12 9 14 11 5 6 2 8 11 11 8 1 1 2 2 1 1 2 1 1 1 2 3 4 3 5 5 3 6 4 6 7 4 5 5 4 2 6 8 9 9 4 10 12 6 5 3 5 5 5 6 5 5 3 3 4 7 7 9
18 17 17 15 14 15 15 16 16 15 16 15 8 5 6 5 4 4 4 3 3 3 3 4 4 10 12 16 16 12 10 8 7 5 5 5 4 1 4 4 3 1 1 2 3 3 1 2 1 5 4 6 3 6 5 7 6 6 7 7 4 5 8 6 5 5 5 4 5 4 7 9 9 5 6 6 6 7 6 4 3 3 5 4 4 8 11
18 17 16 16 16 16 16 16 16 17 16 16 9 7 6 6 6 6 5 4 3 3 5 6 7 8 12 14 12 9 11 11 9 8 6 4 6 8 3 7 6 4 3 2 2 0 1 3 5 1 1 2 2 5 3 6 6 6 6 9 5 6 8 5 6 4 7 5 6 6 7 8 8 6 5 6 5 6 7 6 6 7 7 5 4 8 12
18 17 17 17 17 18 17 17 17 17 18 13 6 7 7 9 8 6 6 5 4 3 3 5 7 7 5 7 11 10 10 9 11 9 10 8 5 3 3 2 4 5 3 1 1 2 4 5 2 3 2 1 1 5 1 4 3 7 9 8 5 5 4 7 10 10 10 9 9 6 5 7 8 7 7 7 7 7 6 5 6 8 7 5 8 11 10
19 19 20 19 19 18 18 17 17 16 14 6 5 3 4 2 3 1 3 1 2 3 1 3 6 3 5 6 8 11 11 13 12 9 4 3 1 1 3 2 2 2 2 3 2 5 3 3 3 3 3 6 3 2 1 3 5 9 10 9 7 6 7 8 5 5 9 8 5 4 3 5 6 6 6 6 8 9 5 3 4 4 5 4 6 7 5
20 19 21 21 20 19 17 17 16 15 12 4 3 3 2 2 1 2 3 2 3 2 1 1 6 5 6 3 6 11 12 9 4 5 5 3 3 3 3 2 2 2 1 1 1 3 2 3 1 2 2 6 4 2 2 1 5 7 11 5 7 7 8 8 7 8 7 4 4 4 5 6 6 5 5 6 7 5 3 4 6 7 7 5 7 7 6
22 22 22 21 19 18 17 16 15 12 5 5 4 2 2 1 3 3 2 4 1 1 1 3 4 2 3 4 3 6 8 5 4 2 3 1 3 1 3 2 4 4 4 4 3 2 4 5 4 5 6 4 6 2 2 4 9 14 10 5 6 8 8 9 7 4 4 4 4 5 6 6 3 2 6 6 10 9 7 8 10 9 8 5 5 5 4
22 22 22 21 20 18 17 16 14 8 5 7 11 15 15 17 11 5 4 2 1 1 1 1 4 2 3 4 7 6 3 3 3 2 3 2 3 1 4 3 3 3 5 4 3 3 3 4 4 6 7 3 2 2 3 9 12 11 11 10 8 9 10 5 4 4 5 4 1 2 5 9 8 7 7 8 9 7 7 8 9 8 6 5 5 6 4
24 24 24 22 21 20 18 15 14 11 7 2 4 4 2 6 6 5 2 0 1 1 1 1 2 3 5 4 6 1 2 2 3 2 4 2 2 2 2 2 1 2 2 5 3 1 2 2 4 4 1 3 2 1 5 10 12 13 13 12 11 8 2 4 5 8 6 3 3 5 8 9 8 7 7 7 6 5 6 6 5 5 5 5 5 4 1
26 26 24 24 21 18 17 14 5 1 2 4 4 0 2 6 5 5 3 1 0 1 1 2 1 3 3 3 3 3 3 2 3 2 3 3 2 3 1 1 1 2 3 3 3 4 3 4 3 1 5 2 2 3 5 8 10 9 8 7 5 4 4 4 5 5 4 3 3 4 4 5 6 6 5 4 5 6 4 5 5 5 5 4 1 1 3
27 28 26 25 25 15 5 3 3 1 2 2 3 6 11 8 3 2 2 2 1 1 1 2 1 4 3 5 4 1 2 5 3 3 2 3 4 0 2 1 4 5 2 2 3 1 3 1 3 4 2 3 5 3 5 4 5 7 7 8 6 5 5 7 6 4 4 2 2 2 4 4 4 5 5 4 4 5 5 6 6 7 7 4 3 3 4
27 27 28 21 7 2 0 0 2 1 2 3 1 3 4 2 1 2 2 2 2 0 1 1 3 6 3 3 2 3 1 4 3 3 3 3 3 1 2 1 4 2 3 3 3 3 6 3 3 4 2 4 6 3 6 6 5 6 8 9 8 7 6 5 4 4 0 2 2 3 3 3 4 5 5 6 7 7 7 7 7 7 8 7 3 3 2
26 25 10 5 3 1 2 2 1 3 6 7 6 3 1 1 2 2 2 1 1 3 2 2 5 4 2 2 3 4 3 3 3 3 2 1 2 2 0 1 4 1 3 2 4 3 3 1 3 3 4 3 1 3 5 7 7 7 7 9 7 6 4 1 1 2 0 0 3 6 6 6 5 5 6 7 7 8 7 8 8 7 4 1 4 4 5
16 7 5 4 2 1 1 3 5 11 8 4 3 0 1 1 0 1 2 2 1 3 2 3 4 4 4 4 5 2 2 4 4 2 3 1 2 3 0 2 2 2 3 3 4 3 2 1 2 2 6 1 4 6 5 7 7 5 7 8 8 5 5 2 2 4 6 6 4 4 4 5 6 7 6 6 7 7 8 9 8 4 2 5 5 5 5
6 6 4 5 3 3 4 7 11 9 3 2 1 1 1 1 2 2 3 2 2 2 1 4 4 4 4 3 2 4 1 4 4 4 3 5 1 2 1 2 1 1 3 2 3 1 1 2 1 2 5 1 4 4 5 5 7 7 7 7 8 4 4 4 7 7 7 7 7 7 6 5 4 4 5 6 6 7 8 8 6 6 5 5 7 7 8
5 5 4 3 5 4 6 9 7 3 1 1 0 1 0 1 2 1 1 2 2 1 4 2 1 2 2 2 2 3 1 0 3 1 1 4 1 1 1 1 0 2 1 3 1 2 1 3 3 3 2 4 6 6 6 5 4 4 5 5 5 3 3 7 10 9 8 7 7 7 7 7 7 6 6 6 5 5 7 6 8 9 11 10 10 9 8
6 6 6 8 9 8 8 4 1 1 1 0 0 1 1 2 1 2 2 1 1 1 2 1 1 0 2 2 3 2 3 3 2 1 1 3 1 0 1 1 0 1 1 1 3 3 1 3 3 4 4 6 6 6 6 6 5 5 4 4 4 3 6 10 11 10 9 9 8 7 7 7 8 7 6 5 6 6 7 9 10 12 13 12 12 12 11
20 16 8 5 3 2 1 2 2 1 0 0 1 1 1 1 0 1 2 0 1 0 1 1 2 2 1 1 4 2 3 0 1 1 1 2 1 1 1 1 1 2 3 2 1 2 2 2 2 4 5 6 8 7 8 6 4 5 6 5 3 5 8 10 10 10 10 10 9 8 7 8 8 7 7 7 8 8 10 10 9 11 12 13 12 11 9
9 6 3 2 2 2 1 2 0 1 1 1 1 1 1 3 2 1 2 1 1 2 0 2 3 4 4 1 2 2 2 1 0 0 2 0 1 1 1 1 1 2 1 1 1 2 2 1 1 6 6 6 7 7 7 7 6 5 5 4 4 7 9 10 9 10 10 8 8 8 7 8 9 10 10 9 10 9 9 12 12 13 13 12 10 8 3
4 2 2 2 1 1 2 1 0 1 2 1 2 3 2 3 3 4 4 2 3 2 2 2 2 3 4 3 2 3 1 2 1 1 1 0 1 1 1 2 1 1 2 3 2 2 2 3 4 6 7 9 9 7 6 6 4 3 2 4 4 7 9 9 9 8 8 8 8 6 8 9 10 11 11 11 10 10 11 11 11 13 12 13 13 13 12
2 2 2 2 3 1 1 1 1 2 1 2 2 2 4 5 3 2 0 2 2 4 4 3 4 3 5 2 1 2 2 1 1 1 1 1 1 2 1 2 1 1 2 2 2 2 4 5 5 7 7 9 8 6 6 6 4 4 3 4 6 8 8 8 8 9 8 7 7 7 7 8 9 10 11 11 12 12 11 10 11 12 12 13 13 13 13
3 1 1 1 3 2 1 1 2 2 2 5 6 6 5 4 2 2 1 2 1 2 2 2 3 3 4 4 2 2 1 0 2 1 1 1 1 1 0 1 1 0 2 3 2 2 5 7 4 4 6 7 7 6 5 5 4 3 3 2 6 9 8 9 11 10 9 9 9 8 7 7 7 8 9 12 11 10 10 11 12 13 13 12 11 12 13
4 1 1 1 2 1 3 3 3 5 5 5 5 4 4 2 2 3 2 2 3 1 1 3 4 3 3 1 1 3 2 1 2 2 1 1 0 1 0 0 0 1 1 1 3 4 6 7 5 4 6 6 6 7 4 5 6 6 4 2 6 8 9 9 9 8 7 8 8 7 8 8 7 8 9 10 10 9 9 10 10 11 12 12 13 13 13
2 2 2 2 1 2 3 4 7 8 8 8 6 7 4 4 4 5 3 1 3 2 2 0 2 1 3 1 3 2 2 0 1 1 1 1 0 1 1 1 1 2 0 1 3 4 6 8 4 1 4 5 5 5 5 5 5 5 4 6 4 6 8 8 8 7 6 6 6 7 7 6 7 7 8 9 10 8 7 8 10 10 10 11 11 11 11
2 2 2 3 4 5 5 7 8 8 6 5 4 4 3 3 3 5 0 2 1 1 2 2 1 1 1 0 2 1 2 1 1 1 1 1 1 1 1 3 1 1 4 4 4 5 6 6 3 3 5 5 5 5 4 4 4 4 2 3 1 2 7 8 8 7 6 6 6 7 7 7 8 8 9 9 7 6 8 9 9 9 9 8 9 9 8
2 2 3 2 5 5 3 4 4 6 7 7 7 6 3 3 1 4 0 1 2 2 1 1 1 1 1 1 0 1 0 1 1 2 1 2 0 1 1 2 2 3 5 5 5 5 5 3 4 2 3 5 5 4 4 4 3 5 3 3 2 5 6 7 7 7 6 6 5 6 5 6 6 7 7 6 7 7 8 7 6 6 7 6 7 8 8
1 3 3 3 5 7 7 7 7 8 9 8 7 5 3 4 2 4 1 1 1 1 2 0 1 1 1 2 0 1 1 1 1 1 2 1 0 0 1 3 5 5 5 5 5 4 2 2 1 1 2 4 5 5 5 5 5 3 2 1 3 3 3 5 6 6 6 5 5 4 4 4 5 5 5 5 5 5 6 5 3 4 5 6 5 5 6
Wind_Direction
6 3 2 0 358 356 354 355 357 1 359 13 343 326 330 343 287 280 258 231 44 1 307 294 3 338 353 343 325 1 346 344 346 333 325 300 2 352 2 359 16 344 342 335 331 325 294 319 278 311 328 324 173 172 106 45 20 89 16 56 333 34 76 350 287 280 275 279 266 257 258 270 287 311 351 6 293 183 165 175 185 161 203 172 144 184 265
7 5 3 1 358 356 354 352 352 359 17 356 304 311 331 304 289 304 288 25 34 62 279 341 323 319 340 7 343 355 342 331 313 284 294 298 9 359 329 325 299 294 315 288 279 310 336 243 318 301 329 284 89 70 55 126 54 104 210 130 252 26 294 107 322 338 339 339 323 300 350 35 81 276 291 315 2 79 233 156 187 170 210 185 160 242 269
7 6 3 1 359 357 354 352 348 349 357 355 305 336 299 284 260 226 335 5 54 52 295 149 275 312 353 9 346 340 327 311 301 322 280 5 333 6 298 287 321 294 348 322 326 311 271 298 304 296 296 288 294 287 171 121 163 153 170 143 144 118 203 105 260 260 280 275 172 304 350 326 319 325 322 317 324 323 23 32 31 125 277 220 174 241 256
8 6 4 2 1 358 356 352 348 343 345 354 356 266 339 339 337 312 340 358 351 12 348 350 14 20 16 354 302 312 301 302 326 337 340 95 279 197 333 327 355 327 338 315 310 315 333 326 330 324 303 287 290 339 341 209 121 142 141 118 88 152 187 131 170 187 233 210 236 302 351 326 316 307 303 290 291 295 295 144 241 240 234 256 229 222 291
8 7 5 4 2 360 357 355 350 346 338 347 351 289 195 291 60 341 325 322 1 346 345 9 34 339 343 322 317 298 303 291 294 101 285 28 331 312 134 322 326 296 324 295 293 293 298 299 309 303 310 297 305 334 357 1 118 140 148 138 103 105 183 218 211 236 243 257 273 287 295 281 285 295 289 285 277 353 25 349 250 218 359 292 257 189 289
8 7 6 5 4 2 359 357 353 347 341 337 346 14 12 20 313 42 337 242 290 359 326 347 331 322 330 273 305 283 298 330 317 324 288 305 252 333 21 80 336 323 306 305 291 271 267 254 268 311 327 346 355 345 346 352 235 237 331 122 142 156 185 241 199 246 244 244 252 253 257 257 260 258 262 272 294 342 299 266 257 259 213 245 261 221 235
8 7 6 6 5 3 1 360 355 351 341 335 20 31 355 48 317 10 35 15 318 313 293 302 285 286 293 280 276 288 282 280 290 282 258 57 360 10 312 237 232 279 304 299 272 20 37 336 350 37 335 4 351 336 336 331 4 335 313 343 236 348 221 216 208 260 262 269 289 281 267 273 280 278 275 286 324 300 275 267 266 247 249 245 260 276 248
8 8 7 6 6 4 4 2 0 354 344 336 60 47 10 14 357 328 351 318 289 286 308 303 297 264 257 271 252 280 275 293 287 288 348 20 352 9 7 335 341 356 339 345 23 73 160 175 287 334 2 339 341 300 236 300 326 348 327 334 306 101 269 54 261 278 278 249 247 262 279 279 271 270 278 305 303 285 274 279 289 301 293 290 321 326 297
8 8 7 7 6 5 5 5 5 0 350 25 10 57 29 326 336 323 305 315 292 307 311 314 314 316 304 267 273 275 318 291 21 346 358 356 342 339 315 6 355 341 310 312 321 142 172 154 183 286 6 266 318 340 309 342 311 316 316 315 312 25 264 327 294 292 280 185 257 264 274 279 277 278 304 306 280 280 268 251 236 243 252 273 311 301 284
8 8 8 8 7 6 5 6 7 7 356 31 345 14 1 339 324 342 359 295 300 323 297 279 313 282 293 341 294 304 9 353 11 354 326 334 322 12 22 352 351 352 0 338 342 350 335 312 279 220 214 215 283 281 291 289 281 290 298 328 313 38 359 351 338 297 266 155 305 308 329 348 296 282 232 228 244 245 254 267 252 232 231 267 265 249 243
8 7 7 7 8 6 5 6 7 10 10 20 357 328 355 14 337 337 336 318 297 296 313 297 282 347 340 352 347 360 33 16 3 14 314 355 337 350 353 360 348 310 288 284 337 347 341 328 318 305 297 293 275 264 267 277 276 263 257 278 277 309 294 275 203 252 291 39 15 360 4 282 258 201 184 137 252 246 264 267 252 258 198 218 202 247 299
7 7 6 7 7 6 5 4 5 7 11 357 316 293 333 341 322 300 335 338 284 304 297 286 347 331 327 350 353 355 327 146 272 35 352 335 317 321 325 320 26 303 263 313 16 348 341 353 352 338 309 308 302 290 274 259 255 256 260 256 268 265 249 242 210 260 268 94 87 327 259 253 181 46 326 310 302 341 307 293 309 34 30 7 348 346 30
5 5 5 6 5 6 6 4 5 4 6 358 350 335 310 354 10 351 312 309 277 334 336 325 329 325 355 345 353 343 347 355 8 1 306 282 285 295 293 261 257 258 287 288 18 353 327 326 321 311 314 311 290 274 267 264 259 249 239 234 242 246 226 233 243 213 312 308 140 225 243 272 324 314 299 295 296 62 12 329 329 35 360 346 317 348 5
3 3 3 4 4 5 5 5 4 4 3 2 346 332 327 15 15 354 1 357 299 299 340 322 317 343 355 347 340 340 347 341 347 8 328 311 301 260 258 271 270 8 30 54 43 28 351 11 330 349 304 296 284 287 252 244 242 242 233 229 227 226 201 193 249 173 228 224 177 225 288 293 278 308 337 170 164 50 106 281 287 323 0 39 55 29 19
360 360 360 1 1 2 4 3 2 3 2 360 334 337 344 18 6 360 307 294 293 302 262 224 336 329 343 332 330 318 326 315 352 308 304 289 260 281 300 289 287 151 112 58 34 57 219 15 341 336 314 331 323 288 322 300 258 225 227 228 213 213 224 199 193 218 177 211 263 282 280 263 323 197 59 94 144 139 155 100 296 12 28 44 58 36 8
358 357 357 359 359 358 359 1 1 0 3 358 346 340 334 7 8 4 333 300 300 312 274 14 346 326 315 316 334 358 354 12 335 344 337 333 333 327 328 10 350 25 26 60 132 128 184 160 245 312 259 271 273 291 265 317 295 308 309 215 219 216 211 206 200 225 160 196 224 231 234 254 198 187 195 165 162 142 131 72 283 265 345 37 29 31 325
356 355 354 356 359 357 356 359 360 0 359 2 347 339 319 357 16 355 333 315 288 246 304 328 350 338 334 331 7 347 16 354 344 353 342 332 327 325 329 359 328 340 254 151 167 89 2 321 241 239 267 275 278 260 290 278 296 309 317 313 322 155 192 215 237 245 231 214 219 243 205 263 43 121 136 123 91 86 64 352 283 268 273 254 89 338 307
353 354 353 353 356 356 355 356 359 358 358 358 351 327 313 354 342 348 329 315 320 284 245 18 355 337 351 353 325 325 1 355 338 358 275 272 299 290 295 9 324 355 77 68 69 38 262 209 238 263 271 281 295 313 266 311 300 300 306 316 317 321 332 145 208 220 245 253 278 330 311 60 34 35 156 172 182 75 69 247 241 238 246 256 216 222 245
352 353 353 352 351 354 353 354 356 357 357 357 347 321 330 325 325 357 319 308 323 280 312 338 310 352 341 337 352 337 3 355 329 332 320 328 33 347 327 333 170 280 330 312 69 180 190 265 261 260 270 264 251 251 302 279 267 301 318 327 328 315 323 263 89 179 195 196 189 211 192 171 197 235 324 312 19 13 209 232 210 263 314 334 15 343 305
350 351 351 350 348 349 352 352 354 356 357 355 357 330 304 300 297 318 347 324 317 286 296 288 335 354 341 348 342 344 344 347 353 4 332 295 342 346 15 347 349 10 334 350 315 197 196 236 228 266 254 258 250 304 296 284 313 297 316 306 289 275 305 280 314 292 330 110 212 325 313 243 198 180 53 49 115 226 238 265 314 98 134 328 300 358 299
347 349 348 346 346 345 348 349 349 352 353 355 355 328 321 316 335 343 13 339 315 315 297 315 346 326 323 306 290 297 287 265 277 295 297 295 337 6 322 286 334 349 318 25 329 324 343 316 319 275 287 306 323 355 286 336 322 322 354 344 324 344 350 326 327 58 249 358 334 257 167 303 233 176 206 234 200 231 225 171 290 264 216 179 202 246 245
345 346 346 345 344 341 342 346 346 345 348 349 348 326 306 335 327 342 349 322 262 237 259 302 300 285 281 272 266 246 248 254 264 224 308 309 323 250 253 293 303 308 303 344 305 318 338 302 319 338 3 344 2 246 335 337 298 311 334 345 330 17 11 119 240 316 114 249 280 303 309 311 219 206 240 246 262 243 227 188 207 248 260 212 208 244 246
343 342 342 342 341 340 338 339 344 343 340 342 341 328 322 319 318 331 329 306 290 283 281 275 274 271 264 265 251 250 253 247 182 165 176 226 302 274 273 310 303 329 7 35 30 331 284 61 266 353 324 233 338 317 319 273 279 338 295 306 284 336 46 321 300 298 341 302 239 254 301 324 332 323 303 322 338 344 22 348 325 282 255 246 227 255 260
340 339 337 337 336 336 334 335 338 337 338 336 338 311 316 316 297 308 319 302 288 308 294 249 9 322 312 318 312 195 217 247 200 210 164 139 197 286 330 272 347 24 68 137 165 28 325 35 248 16 277 286 341 290 282 297 267 323 319 311 290 340 15 8 340 304 12 289 6 333 300 305 306 304 355 22 24 352 332 340 315 292 287 288 281 269 269
336 335 334 333 332 330 331 332 332 334 336 334 332 310 294 286 298 340 335 330 334 355 318 316 290 260 303 335 346 334 352 332 320 198 167 162 170 192 230 214 143 187 268 286 79 40 29 334 334 299 275 276 224 268 213 276 276 273 279 284 5 310 24 347 302 314 296 269 299 310 343 353 332 61 2 321 319 303 286 248 243 247 257 268 285 312 303
334 333 332 331 328 327 327 330 331 331 334 333 329 309 305 298 308 305 292 270 273 271 288 304 292 316 345 349 337 324 306 293 290 316 231 192 197 203 224 240 316 126 186 221 206 211 182 216 204 263 277 278 171 254 254 215 274 313 275 270 249 274 334 250 276 275 280 285 285 310 336 316 307 314 311 273 260 268 257 254 257 271 290 306 306 298 282
330 332 332 329 326 324 324 326 328 328 330 329 322 301 283 278 269 265 260 296 348 291 204 247 300 322 350 328 306 305 304 320 315 279 278 293 299 239 176 212 212 288 250 279 214 189 133 197 175 257 217 258 313 278 289 285 279 275 273 268 272 293 258 264 277 286 268 258 280 350 314 299 299 284 276 287 278 261 249 244 246 257 262 268 302 302 289
328 327 327 326 323 321 321 321 322 323 322 322 310 288 275 261 247 239 246 225 205 267 310 308 304 312 314 274 275 308 321 313 304 300 291 247 226 246 199 184 200 220 222 191 301 101 197 246 252 236 265 290 10 280 263 284 292 270 256 262 238 238 260 265 257 234 260 257 271 269 248 261 264 273 281 289 285 270 254 244 247 248 232 221 246 271 275
326 325 323 321 320 319 320 320 319 320 321 321 305 292 268 244 231 234 233 227 215 279 300 291 293 287 290 316 315 304 306 306 298 282 270 267 257 240 234 228 216 214 179 130 197 196 233 249 191 221 215 183 126 249 230 250 230 253 250 253 245 234 257 275 278 278 271 257 260 252 246 267 282 286 290 289 287 276 260 241 238 246 259 244 220 223 240
323 322 321 320 319 318 317 317 318 318 322 322 298 289 299 57 29 55 355 11 100 96 293 303 303 289 307 297 291 295 292 280 269 272 291 302 301 261 255 256 263 180 191 210 162 242 229 234 225 233 234 144 216 265 224 219 244 254 252 254 252 269 269 264 263 279 291 295 296 294 292 284 286 287 291 290 285 282 274 276 285 281 269 267 276 269 246
322 321 320 318 317 316 316 314 318 317 318 299 295 271 249 159 7 347 19 30 98 110 238 232 272 307 289 243 260 271 270 283 349 8 350 7 24 356 309 346 301 82 92 11 19 304 6 273 267 243 201 186 171 239 236 301 280 273 261 262 276 279 278 282 280 270 280 301 285 269 272 273 278 301 296 300 302 312 311 285 274 256 252 268 267 255 256
323 320 316 314 312 311 309 309 309 315 304 275 242 247 14 355 279 303 360 295 162 183 210 295 286 267 292 302 295 308 320 358 329 8 322 33 312 246 266 172 247 160 168 175 197 191 219 218 221 245 253 155 119 268 205 228 251 259 281 284 268 265 264 270 276 292 294 277 308 318 305 294 305 247 256 278 293 289 270 274 272 265 260 254 253 253 264
320 317 313 312 311 307 302 300 297 292 268 275 292 297 281 262 249 268 259 245 269 220 101 260 262 301 277 285 311 303 343 351 335 35 299 182 241 167 260 218 209 211 166 130 191 214 205 189 201 240 238 187 198 231 242 247 250 265 276 279 278 275 276 276 284 281 276 259 144 201 268 278 273 267 266 277 279 277 275 267 267 265 258 258 271 283 279
319 317 314 310 306 302 299 293 293 288 270 255 276 238 192 159 164 205 255 42 247 245 147 224 273 267 279 309 286 254 18 357 283 283 288 270 224 184 261 351 224 230 177 168 209 206 248 199 213 235 325 234 183 186 253 255 259 268 274 276 273 275 288 307 307 295 279 250 212 214 236 246 256 268 275 272 278 298 299 287 278 280 263 250 267 283 160
320 316 312 307 301 293 290 291 293 203 225 235 232 118 165 200 189 179 191 144 340 223 189 225 187 278 285 281 278 296 21 6 307 303 267 266 2 297 243 231 297 296 276 174 240 195 225 216 169 167 240 203 95 243 245 264 270 272 274 280 297 300 310 299 267 256 277 273 289 275 252 265 279 284 287 302 302 288 296 318 322 314 307 261 190 182 164
318 314 310 306 300 291 286 254 184 193 237 247 261 190 200 199 182 185 228 272 196 305 295 289 271 261 288 299 312 279 14 291 250 275 300 329 315 311 357 294 307 242 228 193 251 251 251 205 107 242 180 231 241 227 255 286 314 317 313 301 288 281 271 260 259 262 276 288 219 236 265 274 285 284 285 289 309 331 352 340 334 330 320 327 161 193 214
315 312 308 304 293 96 138 317 119 174 304 238 321 87 127 111 251 241 203 220 206 93 260 286 268 255 240 280 295 267 274 275 11 354 322 322 281 298 290 323 265 288 301 287 288 277 262 261 248 269 244 246 264 319 349 328 293 293 292 290 285 270 268 264 249 256 34 325 322 351 347 344 353 356 358 353 345 349 343 335 318 311 305 293 231 174 127
312 307 306 309 297 293 98 35 8 294 289 271 117 108 149 195 189 201 162 217 188 144 202 180 244 265 254 168 254 260 300 288 16 304 294 271 331 293 17 273 252 312 295 289 259 237 274 269 240 244 261 257 42 50 327 317 311 302 305 308 308 298 281 284 340 11 119 199 25 14 359 1 360 349 1 348 347 332 318 300 292 289 295 348 85 76 90
307 315 324 335 324 23 17 315 334 311 283 237 155 336 222 185 230 229 200 181 156 201 179 188 243 226 226 257 268 316 339 310 316 341 319 334 26 297 212 303 322 25 292 318 291 77 318 286 289 274 265 323 353 312 295 288 299 313 321 306 294 334 334 14 53 76 70 64 58 44 22 360 348 344 353 337 324 316 303 301 287 254 143 101 102 104 98
347 348 341 322 352 335 314 318 330 322 278 285 175 137 264 196 198 254 148 193 201 161 134 224 219 222 207 257 348 311 35 31 331 297 283 304 200 246 295 299 277 360 274 270 272 312 245 288 269 284 274 18 318 306 313 315 308 317 301 314 347 357 325 18 66 67 68 59 46 35 21 5 356 346 342 337 328 326 329 341 19 74 96 93 88 82 81
353 331 317 309 321 323 315 314 308 278 255 231 231 180 221 259 207 234 272 270 289 217 177 225 8 347 336 350 22 311 314 295 242 225 264 264 242 274 287 286 23 267 267 266 315 315 297 271 277 262 314 328 290 296 297 300 297 308 303 297 315 13 71 60 53 48 51 54 47 38 31 25 20 7 349 339 339 346 1 10 50 51 66 68 73 74 68
310 287 282 286 283 284 287 269 207 277 255 201 53 264 213 243 249 272 164 203 297 355 334 52 300 223 295 56 297 281 277 201 221 217 228 290 323 39 274 261 272 236 281 252 323 276 316 291 309 311 345 317 308 308 308 303 302 306 342 31 11 3 64 71 66 58 52 56 55 49 40 36 28 17 6 356 10 31 46 32 38 62 68 66 67 71 69
291 278 253 246 276 261 226 268 192 179 201 250 113 319 268 301 245 298 314 36 40 345 279 214 249 37 298 78 298 167 230 360 294 330 13 264 317 250 286 267 271 261 265 291 297 317 323 275 285 302 328 335 339 333 327 324 344 29 45 22 36 64 73 75 72 66 62 59 58 50 42 36 27 23 20 28 24 42 54 54 48 60 67 74 73 72 69
292 288 268 174 215 237 186 272 87 46 265 207 170 228 246 263 291 10 297 85 98 258 224 26 338 25 306 328 284 305 305 333 86 284 242 284 328 276 259 257 231 241 256 284 293 255 247 269 283 310 321 328 337 341 340 358 359 348 21 19 41 65 72 74 74 74 68 56 49 44 40 35 36 36 35 33 36 37 58 65 62 63 66 68 68 66 62
310 298 297 305 262 290 41 323 251 151 239 240 202 232 239 265 278 261 248 196 165 257 336 18 30 3 299 293 276 252 146 262 129 165 263 306 257 239 247 260 268 293 296 298 319 293 305 310 320 323 331 333 332 331 336 328 330 356 348 349 48 72 79 83 80 77 68 56 47 35 37 32 44 49 43 41 39 39 51 56 58 65 64 65 63 62 53
295 305 312 301 312 299 183 248 272 290 243 220 245 214 228 238 237 275 235 96 19 2 2 5 358 331 293 285 263 268 291 284 310 250 336 263 252 255 243 259 279 353 332 297 309 310 320 318 323 325 328 323 325 324 319 324 343 5 16 55 94 90 87 85 84 79 75 72 55 46 44 45 44 53 52 44 43 44 45 51 54 64 65 63 58 56 54
275 271 286 299 270 260 189 255 249 242 296 303 297 297 289 285 302 301 268 100 24 36 29 30 354 258 268 278 301 309 272 230 249 247 184 255 236 297 307 285 303 246 307 307 287 292 317 322 318 316 323 325 332 327 337 356 352 19 49 63 96 99 99 92 88 84 84 78 72 62 51 44 47 53 60 57 47 43 48 52 54 56 60 63 60 59 56
291 319 279 260 273 263 245 250 268 279 269 273 285 291 296 308 325 314 4 106 136 105 36 24 319 314 304 286 251 255 269 274 286 262 196 245 345 269 316 314 291 292 210 262 300 317 312 309 310 323 322 327 345 326 325 345 20 22 349 11 102 101 91 87 83 83 83 83 81 75 67 61 54 60 63 66 59 47 48 52 55 57 60 59 57 55 55
256 307 292 284 267 289 295 331 330 304 303 298 302 309 323 1 353 317 295 82 59 31 78 202 275 353 277 330 286 292 296 277 260 269 352 294 188 277 326 287 327 288 279 93 298 315 307 309 304 309 337 347 336 337 18 35 17 5 0 17 11 98 104 99 97 94 92 92 95 96 87 79 75 75 75 72 70 56 53 60 62 61 63 65 64 62 57
267 245 220 242 277 278 279 282 270 274 282 295 316 302 1 344 291 276 190 80 97 33 23 298 228 216 259 227 267 271 251 256 286 345 325 279 276 311 331 284 255 306 316 332 305 295 290 286 312 23 4 343 349 3 5 20 11 350 341 104 211 117 111 116 118 119 115 111 108 109 112 109 101 93 85 85 85 88 74 68 68 69 68 69 72 68 65
200 240 258 236 256 280 324 298 305 307 306 300 300 294 304 296 304 295 55 113 93 46 6 279 308 266 301 258 300 289 291 31 296 254 244 265 197 217 217 251 277 286 270 263 263 280 304 351 30 8 353 346 337 347 343 333 319 287 272 264 211 124 128 122 124 127 132 134 140 136 120 116 117 115 115 109 97 86 79 72 76 86 88 83 81 81 79
254 245 250 247 244 252 249 257 258 256 260 264 273 286 305 281 266 266 150 126 120 120 259 301 291 296 247 246 245 260 314 278 245 301 308 278 5 68 271 233 263 274 279 299 305 313 32 61 25 323 313 310 313 328 324 309 304 280 262 326 96 103 119 131 138 141 143 150 151 144 150 151 149 141 135 119 104 87 83 88 88 87 88 89 95 101 102